Regional Weather Roundup
Issued by NWS

Home | Current Version | Previous Version | Text Only | Print | Product List | Glossary On
Versions: 1 2 3 4 5 6 7 8 9 10 11 12 13 14 15 16 17 18 19 20 21 22 23 24 25 26 27 28 29 30 31 32 33 34 35 36 37 38 39 40 41 42 43 44 45 46 47 48 49 50
000
ASUS42 KFFC 022210
RWRGA
WEATHER ROUNDUP FOR GEORGIA
NATIONAL WEATHER SERVICE PEACHTREE CITY GA
600 PM EDT SUN AUG 02 2015

NOTE: "FAIR" INDICATES FEW OR NO CLOUDS BELOW 12,000 FEET WITH NO
SIGNIFICANT WEATHER AND/OR OBSTRUCTIONS TO VISIBILITY.

* = USE WITH CAUTION. THE STATIONS MARKED WITH AN ASTERISK MAY NOT
REPORT WEATHER SUCH AS PRECIPITATION, FOG, OR THUNDER AND ARE NOT
QUALITY CONTROLLED BY NWS.

THE REMARK "TC" DENOTES TEMPERATURE READING IN DEGREES CELSIUS.

GAZ001>058-022300-
NORTH GEORGIA

CITY           SKY/WX    TMP DP  RH WIND       PRES   REMARKS
ATLANTA        MOSUNNY   94  60  32 NE5       29.89F HX  94
ATHENS         MOSUNNY   93  57  29 NE3       29.89F HX  91
CHAMBLEE       MOSUNNY   94  60  32 CALM      29.89F HX  94
PEACHTREE CITY SUNNY     94  62  34 E3        29.89S HX  94
ROME           MOSUNNY   94  60  32 E7        29.88S HX  94
WEST ATLANTA   SUNNY     93  60  33 VRB5      29.88F HX  93
GAINESVILLE    MOSUNNY   91  58  32 VRB3      29.94F HX  90
CARTERSVILLE   SUNNY     93  58  30 SE6       29.90F HX  92


CITY           SKY/WX    TMP DP  RH WIND       PRES   REMARKS
DALTON*        MOSUNNY   90  63  40 N7        29.91S HX  90
LAWRENCEVILLE* MOSUNNY   93  57  29 NE6       29.90S HX  92
MARIETTA       MOSUNNY   93  59  31 N3        29.90F HX  92
BLAIRSVILLE*     N/A     84  24  11 SW3       29.99S
$$

GAZ059>098-102>109-022300-
CENTRAL GEORGIA

CITY           SKY/WX    TMP DP  RH WIND       PRES   REMARKS
AUGUSTA-BUSH   PTSUNNY   89  69  51 SE10      29.87R HX  93
AUGUSTA-DANIEL CLOUDY    78  71  79 N17G25    29.91R THUNDER
COLUMBUS       SUNNY     93  67  42 SE8G16    29.85S HX  96
MACON          SUNNY     91  69  48 SE10      29.86F HX  96
ROBINS AFB     SUNNY     92  71  49 E9        29.85F HX  99


CITY           SKY/WX    TMP DP  RH WIND       PRES   REMARKS
LAGRANGE*      PTSUNNY   97  71  43 CALM      29.87S HX 105
SYLVANIA*      FAIR      86  76  71 S7        29.90R HX  97
MILLEDGEVILLE* MOSUNNY   93  64  38 CALM      29.86S HX  95
$$

GAZ099>101-110>166-022300-
SOUTH GEORGIA

CITY           SKY/WX    TMP DP  RH WIND       PRES   REMARKS
SAVANNAH       PTSUNNY   82  75  79 SE8       29.90S
VALDOSTA       MOSUNNY   83  77  82 E10       29.84S HX  92
ALMA           SUNNY     83  76  79 SE8       29.86F HX  91
ST SIMONS      CLOUDY    76  73  91 SW8       29.90R
ALBANY         RAIN      80  75  84 W7        29.87R
HUNTER AFB     CLOUDY    82  78  88 SE8       29.88S HX  91
MOODY AFB      SUNNY     83  75  75 E10       29.84S HX  90
BRUNSWICK      CLOUDY    77  73  88 SW6       29.91S


CITY           SKY/WX    TMP DP  RH WIND       PRES   REMARKS
BAINBRIDGE*    PTSUNNY   86  77  74 NE12G22   29.84R HX  97
MOULTRIE*      SUNNY     88  73  62 NE8       29.84F HX  96
VIDALIA*       LGT RAIN  81  77  89 SE8       29.88S
WAYCROSS*      CLOUDY    83  78  86 S12       29.88R HX  93
DOUGLAS*       MOSUNNY   86  77  74 S3        29.87S HX  97
$$


USA.gov is the U.S. government's official web portal to all federal, state and local government web resources and services.